Temperature
24 24 23 23 24 25 27 30 32 32 31 31 31 31 30 29 27 25 25 25 23 22 22 22 21 21 20 20 20 19 19 19 19 19 19 18 18 18 18 18 18 18 18 18 18 18 18 18 18
24 23 25 26 25 25 28 31 32 31 31 31 31 30 30 28 27 26 25 24 22 22 22 22 21 21 20 20 20 19 19 19 19 19 19 18 18 18 18 18 18 18 18 18 18 18 18 18 18
24 24 27 27 26 27 29 32 32 32 31 31 31 30 29 28 27 26 25 23 22 21 21 22 21 21 20 20 20 19 19 19 19 18 18 18 18 18 18 18 18 18 18 18 18 18 18 18 18
24 27 28 28 28 31 32 32 33 32 32 31 31 30 28 27 26 25 24 23 22 21 21 22 21 21 20 20 20 19 19 19 19 18 18 18 18 18 18 18 18 18 18 18 18 18 18 18 18
26 28 28 28 30 32 33 33 33 32 32 31 31 29 27 26 26 25 24 23 22 21 21 22 21 21 20 20 19 19 19 19 18 18 18 18 18 18 18 18 18 18 18 18 18 18 18 18 18
28 30 28 29 31 33 33 33 33 32 32 31 31 29 26 25 25 24 24 23 22 21 21 21 21 21 20 20 19 19 19 19 18 18 18 18 18 18 18 18 18 18 18 18 18 18 18 18 18
29 30 29 31 32 33 33 33 33 32 32 31 31 29 25 25 24 24 23 23 22 21 21 21 21 21 20 20 19 19 19 18 18 18 18 18 18 18 18 18 18 18 18 18 18 18 18 18 18
29 30 30 31 32 33 34 33 33 32 32 31 30 28 25 24 24 24 23 23 22 21 20 21 20 20 20 20 19 19 19 18 18 18 18 18 18 18 18 18 18 18 18 18 18 18 18 18 18
30 30 30 31 32 33 34 34 33 32 32 31 29 28 26 25 24 24 23 23 22 21 20 20 19 20 19 19 19 19 19 18 18 18 18 18 18 18 18 18 18 18 18 18 18 18 18 18 18
31 30 31 33 34 34 34 33 33 33 31 30 27 26 25 24 24 24 23 23 22 21 20 20 19 19 19 18 19 18 18 19 18 18 18 18 17 18 17 18 18 18 18 18 18 18 18 18 18
32 31 32 34 34 34 34 33 33 32 30 29 27 26 25 24 24 23 23 23 22 21 21 20 19 19 19 18 19 18 18 18 18 18 18 18 18 18 18 18 18 18 18 18 18 18 18 18 18
32 33 33 34 34 34 33 33 33 32 31 30 29 27 25 25 24 24 23 23 22 21 21 20 19 19 19 19 18 18 18 18 18 18 18 18 18 18 18 18 18 18 18 18 18 17 18 18 18
32 33 33 33 33 33 33 33 32 31 31 30 29 27 26 25 25 24 23 23 22 21 21 20 19 19 19 19 19 18 18 18 18 18 18 18 18 18 18 18 18 18 17 18 17 17 17 17 18
33 33 33 33 33 34 34 33 32 30 30 30 29 28 26 26 25 24 23 22 21 21 21 20 19 19 19 19 19 19 18 18 18 18 18 18 18 18 18 18 18 17 17 17 17 17 17 17 17
33 33 33 33 33 34 34 32 31 30 30 30 30 28 27 26 25 23 22 22 21 20 20 20 19 19 19 19 19 18 18 18 18 18 18 18 18 18 18 18 18 17 17 17 17 17 17 17 17
33 32 31 33 34 34 33 31 31 30 30 30 30 28 27 25 24 23 22 21 21 20 20 19 19 18 18 18 18 18 18 18 18 18 18 18 18 17 17 17 17 17 17 17 17 17 17 17 17
31 31 31 32 33 34 33 31 31 30 30 31 30 29 27 25 24 23 22 21 20 20 19 19 19 18 18 18 18 18 18 18 18 18 18 18 17 17 17 17 17 17 17 17 17 17 17 17 17
31 31 31 31 33 33 33 32 31 31 31 31 30 29 27 25 24 23 22 21 20 19 19 19 18 18 18 18 18 18 18 18 18 18 18 18 18 17 17 17 17 17 17 17 17 17 17 17 17
32 32 31 32 34 33 32 32 32 31 31 31 30 28 27 25 24 22 21 20 20 19 19 18 18 18 17 17 17 18 18 18 17 18 18 18 17 17 17 17 17 17 17 17 17 17 17 17 17
32 31 32 32 33 33 32 32 32 31 31 30 30 28 27 25 23 22 21 20 19 19 18 18 18 18 17 17 18 18 18 17 17 17 18 17 17 17 17 17 17 17 17 17 17 17 17 17 17
31 31 31 31 32 32 32 31 30 30 30 29 29 28 27 25 24 22 21 20 19 19 18 18 18 17 17 17 17 17 17 17 17 17 17 17 17 17 17 17 17 17 17 17 17 17 17 17 17
30 32 32 32 31 30 30 29 29 29 28 29 29 28 27 26 24 23 21 20 19 19 18 18 18 17 17 17 17 17 17 17 17 17 17 17 17 17 17 17 17 17 17 17 17 17 17 17 17
31 32 32 31 30 29 29 29 28 28 27 27 28 28 27 26 24 23 21 20 19 19 18 18 17 17 17 17 17 17 17 18 17 17 17 17 17 17 17 17 17 17 17 17 17 17 17 17 17
32 32 31 31 29 27 27 27 27 27 27 28 29 28 27 26 24 23 21 20 19 19 18 18 17 17 17 17 17 17 17 17 17 17 17 17 17 17 17 17 17 17 17 17 17 17 17 17 17
32 30 28 28 27 26 26 26 27 29 30 30 29 28 27 26 24 23 22 20 19 19 18 18 18 17 17 17 17 17 17 17 17 17 17 17 17 17 17 17 17 17 17 17 16 17 17 17 17
31 30 28 27 26 26 25 25 28 30 31 30 29 28 27 26 24 23 22 21 20 19 18 18 18 17 17 17 17 17 17 17 17 17 17 17 17 17 17 17 17 17 17 16 16 16 16 16 17
30 30 31 29 28 27 26 26 28 30 30 30 29 28 27 26 25 23 22 21 20 19 19 18 18 18 17 17 17 17 17 17 17 17 17 17 17 17 17 17 17 17 17 16 16 16 16 16 16
32 31 30 29 27 27 27 26 26 27 28 28 29 28 27 26 25 23 22 21 20 19 19 18 18 18 17 17 17 17 17 17 17 17 17 17 17 17 17 17 17 17 17 17 16 16 16 16 16
31 30 30 29 29 27 27 26 27 27 27 28 28 28 27 26 25 23 22 21 20 20 19 18 18 18 17 17 17 17 17 17 17 17 17 17 17 17 17 17 17 17 17 17 17 16 16 16 16
31 30 29 28 27 28 27 26 28 27 28 28 28 27 26 25 24 23 22 21 20 20 19 18 18 18 17 17 17 17 17 17 17 17 17 17 17 17 17 17 17 17 16 16 17 16 16 16 16
Wind_Speed
11 14 11 7 3 4 4 4 9 10 12 11 9 8 13 13 9 8 11 19 24 23 21 20 19 18 17 17 17 17 16 15 15 14 14 13 13 13 14 14 15 15 15 16 16 16 15 15 14
12 15 11 5 4 3 0 6 11 11 10 7 7 10 13 13 12 11 14 20 25 22 20 20 20 19 18 17 17 17 16 15 15 14 14 13 13 14 14 14 15 15 16 16 16 15 15 14 13
14 18 8 5 6 4 2 6 9 9 8 6 7 10 11 9 11 10 16 20 23 20 20 21 21 19 18 18 17 17 16 15 15 14 14 13 13 14 14 14 15 15 16 15 15 15 14 13 12
9 9 5 6 8 5 3 6 6 7 6 5 7 7 10 8 8 13 18 20 22 21 21 22 21 20 19 18 17 17 16 15 15 14 14 14 14 14 14 14 15 15 15 15 15 14 13 12 10
11 7 7 9 10 5 3 5 4 5 5 5 7 10 10 8 12 17 17 20 21 20 20 21 21 20 19 18 17 16 16 15 15 14 14 15 14 14 14 15 15 15 15 14 14 13 12 10 8
9 9 9 8 8 2 3 3 3 4 5 5 5 10 9 9 12 16 17 18 19 21 20 20 21 20 19 18 17 16 16 16 15 15 14 14 14 14 14 14 14 14 13 13 12 11 10 9 6
12 11 13 11 9 1 2 3 3 3 3 3 4 9 9 11 13 15 16 16 18 20 20 17 19 18 18 18 17 17 16 16 15 15 14 14 14 14 14 14 14 13 12 11 11 9 8 7 5
12 11 14 10 7 1 3 2 2 3 3 3 3 7 10 13 16 16 16 16 17 19 19 17 17 17 17 16 17 17 16 16 15 15 14 14 14 14 14 14 13 12 11 10 9 8 8 6 5
14 11 11 9 5 1 3 1 2 4 4 4 7 9 15 18 18 17 16 15 15 18 17 17 17 16 16 16 17 16 16 16 15 14 15 14 13 13 12 14 12 11 10 9 8 7 7 6 5
12 11 12 9 5 2 1 1 2 2 5 5 8 12 16 17 18 17 17 17 17 17 17 16 17 15 14 15 15 14 14 14 13 12 13 11 10 11 12 14 12 11 9 8 7 7 7 7 6
14 15 13 11 7 5 5 3 3 2 1 4 8 14 17 17 17 16 16 15 16 15 15 15 16 13 12 10 12 10 10 12 12 13 12 9 9 10 12 10 9 9 9 7 7 7 6 5 3
15 15 13 11 9 7 7 6 3 1 2 6 11 16 17 17 16 16 15 15 14 14 14 14 15 12 9 10 9 8 8 8 8 11 11 8 4 5 7 6 8 7 6 4 4 3 1 3 3
15 15 14 12 11 10 9 7 4 3 1 7 11 15 16 15 14 13 12 13 13 12 12 14 14 11 9 8 7 8 7 8 9 10 9 9 5 4 5 3 4 5 5 4 2 1 2 1 1
13 14 14 13 12 11 11 8 5 2 3 5 10 12 12 13 14 13 11 11 12 12 11 12 14 12 9 7 4 5 6 6 9 9 9 9 7 5 5 4 2 3 4 4 2 3 2 1 0
14 14 15 15 13 13 11 8 4 2 6 6 9 10 11 11 12 13 13 12 13 12 11 12 12 12 11 9 7 6 6 8 6 8 11 9 9 8 6 4 3 3 5 5 3 3 2 3 2
15 15 16 14 14 12 10 8 4 7 9 7 7 9 11 10 11 12 12 11 11 12 11 12 13 13 11 8 6 4 5 6 6 9 10 8 9 9 5 4 3 5 5 3 2 2 2 1 1
16 16 15 11 12 10 9 6 4 8 8 6 7 8 11 11 11 11 12 12 11 11 11 11 11 13 12 9 6 4 3 4 5 8 9 9 9 9 5 3 4 5 3 2 3 3 1 1 1
13 11 10 11 9 9 9 7 5 6 7 6 7 8 10 11 11 12 12 12 11 11 11 11 11 12 11 9 7 4 5 5 5 6 7 10 9 8 5 4 4 4 2 2 2 3 1 1 1
16 13 11 11 7 7 9 8 7 6 5 5 6 7 9 9 11 12 12 13 12 11 11 12 12 11 10 9 9 7 7 6 5 6 9 10 9 8 4 4 4 2 2 3 4 3 2 3 2
16 15 13 9 7 8 10 10 8 4 5 5 5 7 8 10 11 12 12 12 12 12 12 12 11 12 12 10 8 7 8 6 6 5 7 10 9 8 6 5 5 3 3 3 2 2 1 2 2
15 14 14 12 11 11 11 11 8 4 3 4 5 7 9 11 12 13 13 12 12 12 12 12 11 11 12 11 8 7 6 6 6 7 7 7 9 8 5 6 4 4 4 4 3 3 3 1 1
14 13 14 14 12 11 11 9 5 5 4 6 6 7 9 10 11 12 13 12 12 11 11 10 11 11 12 12 11 11 10 8 8 7 6 7 7 7 7 6 4 3 3 5 5 5 3 2 2
14 12 12 13 12 12 12 10 3 3 3 6 6 5 7 9 10 11 11 12 11 12 11 10 11 11 11 12 12 12 10 8 7 7 8 7 6 6 7 6 5 4 3 4 3 3 2 1 2
13 13 13 11 10 12 10 10 7 5 8 8 8 8 7 9 9 10 10 11 11 11 11 11 12 11 12 12 12 12 11 10 10 10 9 8 6 6 6 6 5 4 3 4 3 2 3 2 2
14 12 10 10 9 9 9 8 6 6 8 8 8 8 9 10 10 10 10 11 11 11 11 11 13 12 12 13 12 12 11 10 10 10 10 8 7 6 7 7 5 4 4 4 4 4 3 3 2
14 14 12 11 7 5 5 6 5 4 7 8 8 9 9 10 9 9 10 10 11 12 12 12 12 12 13 13 11 10 11 9 8 9 8 8 7 7 7 7 6 5 5 6 4 4 4 3 3
15 14 15 13 13 9 6 5 6 4 5 7 8 9 9 9 10 9 10 10 11 12 11 12 12 12 12 12 10 10 10 9 8 8 8 6 5 7 9 8 8 7 6 5 5 4 4 3 4
15 13 9 9 9 11 6 3 3 1 3 4 6 7 9 9 10 10 9 9 11 10 10 11 11 11 10 11 11 10 9 8 8 8 8 7 7 6 8 8 8 7 7 6 5 4 4 4 4
14 15 12 9 9 9 8 2 1 3 4 4 6 8 8 8 9 9 9 9 10 10 11 10 10 10 10 10 10 9 9 8 8 7 8 7 7 7 7 7 8 8 7 7 6 6 5 6 6
11 12 11 9 10 10 9 4 3 5 3 4 6 8 8 7 8 9 8 8 9 10 10 10 10 10 10 9 9 8 8 8 8 8 7 7 7 7 7 7 8 8 8 7 7 8 7 7 7
Wind_Direction
235 244 237 248 265 261 274 74 72 67 66 62 54 54 66 60 69 101 131 128 122 125 130 132 131 130 128 128 128 127 125 123 122 119 115 110 107 104 102 101 100 99 98 97 96 95 94 94 94
259 259 245 247 251 268 20 78 75 72 74 76 72 70 71 68 79 108 120 122 124 128 136 134 133 132 131 130 129 129 128 126 125 123 119 116 112 107 105 104 102 101 100 99 98 96 95 95 96
262 266 266 242 250 267 73 79 85 90 86 78 74 69 68 74 87 112 125 130 127 130 130 133 137 134 134 133 132 131 131 130 128 126 124 121 116 110 108 106 104 103 102 101 99 98 97 96 97
259 255 249 263 277 277 110 92 92 100 95 83 87 82 78 67 98 120 132 134 128 130 131 137 139 137 136 135 134 134 133 132 130 128 126 121 117 114 111 107 106 104 103 101 100 99 99 98 99
248 258 253 272 280 279 80 93 101 102 99 85 97 99 90 87 108 125 138 135 134 134 133 140 141 140 139 138 138 137 136 135 132 128 124 121 119 117 114 109 108 106 104 103 101 100 100 100 99
257 257 263 272 277 264 81 93 98 95 99 96 111 113 105 117 121 136 142 138 139 135 135 139 142 142 142 142 141 140 139 137 134 130 127 124 122 119 118 115 113 110 108 106 104 102 103 103 102
259 275 275 274 273 222 98 95 102 98 91 104 97 109 115 134 135 141 139 140 139 135 135 144 146 146 146 146 145 144 141 138 137 134 132 129 128 126 123 120 117 114 113 111 109 108 109 112 116
259 280 287 283 271 191 125 105 128 114 125 102 85 110 135 144 144 145 143 142 140 138 142 149 150 149 151 149 149 148 145 142 140 140 140 137 136 134 132 127 122 121 119 118 118 118 122 129 143
253 262 278 283 279 134 119 119 136 136 119 85 61 94 135 146 150 148 148 150 149 145 148 154 150 154 156 153 152 151 149 147 147 149 150 151 152 145 147 128 131 129 128 129 132 136 143 152 172
240 253 268 287 319 360 60 253 267 176 125 107 95 111 134 149 153 157 161 161 156 151 156 157 154 158 161 155 150 156 157 155 162 158 164 176 162 147 135 136 140 142 144 148 160 166 175 186 180
241 255 274 293 308 322 304 270 250 303 97 146 153 151 149 158 160 166 169 167 160 158 158 157 153 158 160 144 155 162 161 163 171 164 173 174 146 136 134 144 150 160 166 174 170 192 207 184 141
245 262 272 283 297 292 285 286 289 300 178 162 162 157 161 166 169 174 172 169 161 164 159 154 148 157 154 148 159 165 158 166 166 163 175 161 154 145 147 149 162 168 168 165 178 199 129 107 139
247 258 267 271 272 273 274 272 269 267 167 136 142 154 163 168 170 172 172 168 160 163 162 150 150 155 149 147 166 163 155 170 158 160 180 159 157 149 134 128 149 166 156 164 199 128 93 83 169
263 259 265 268 269 266 264 262 251 270 260 159 152 156 164 171 169 168 170 170 161 168 163 152 152 151 148 153 177 153 161 161 154 160 169 166 152 137 127 137 163 161 154 149 159 133 133 163 116
266 268 265 259 254 252 257 263 263 235 235 210 162 161 161 166 168 170 171 169 163 164 157 151 152 152 155 166 183 170 164 159 155 157 161 167 150 141 145 152 175 157 137 137 156 156 164 177 165
260 255 257 255 247 241 245 256 197 210 227 214 174 165 159 159 172 173 167 162 161 161 159 160 166 160 161 167 183 181 163 149 150 152 156 164 148 149 158 159 160 149 150 158 140 197 188 149 143
253 248 253 251 237 242 249 264 200 205 221 199 180 173 159 161 174 167 162 162 158 157 160 164 161 161 165 167 175 185 150 147 153 153 159 162 156 157 166 142 132 162 162 162 182 155 144 148 159
255 258 260 254 226 234 252 256 215 214 234 204 182 172 159 165 171 163 160 161 155 158 164 164 166 166 164 165 172 176 165 159 166 160 156 158 162 162 166 144 150 179 159 143 99 101 111 165 230
272 277 266 257 241 241 262 267 252 210 229 221 187 165 158 163 163 158 161 160 159 161 166 169 174 172 168 171 175 177 175 172 168 163 155 160 163 161 172 138 143 172 146 146 152 149 192 216 204
268 275 275 278 281 275 278 279 271 229 227 214 190 161 161 159 161 158 161 165 167 167 172 177 178 173 172 175 177 178 171 172 169 162 153 160 159 164 172 144 166 167 147 150 158 148 216 230 186
259 265 272 279 280 272 274 269 268 239 229 208 202 169 165 166 168 163 168 171 170 170 177 181 178 174 174 174 175 177 164 167 170 161 161 163 163 170 159 154 165 166 166 163 182 194 207 244 231
255 258 267 273 276 278 279 277 245 212 221 227 205 178 165 165 162 162 166 171 173 172 175 172 173 179 180 179 181 178 176 175 174 167 160 161 165 165 163 162 161 167 170 160 192 191 202 210 247
257 264 268 272 275 277 280 281 262 138 207 234 186 170 158 153 152 157 164 170 173 172 172 171 172 179 183 185 184 182 180 175 166 158 154 160 166 168 168 165 160 172 187 164 172 149 190 226 248
255 261 265 267 271 268 278 276 257 200 195 200 177 160 157 145 145 149 159 163 167 168 170 171 173 176 179 185 187 187 182 176 169 163 163 167 168 176 169 167 167 183 182 159 151 164 196 246 303
235 244 252 250 248 263 292 277 254 202 178 164 152 144 145 144 146 152 158 161 164 168 173 173 173 178 182 185 189 190 184 178 173 170 172 174 174 178 175 175 175 185 169 162 169 184 224 214 243
230 238 248 261 265 267 266 268 262 177 139 135 136 136 140 145 147 150 156 161 164 169 172 173 174 177 181 183 185 186 182 181 180 179 175 183 182 177 166 170 176 185 183 185 177 201 205 203 221
244 240 251 262 273 268 238 231 246 162 140 136 135 139 146 144 144 151 156 161 164 167 170 173 173 175 178 180 179 182 182 187 182 174 178 185 182 170 166 173 179 188 192 188 177 219 218 185 210
244 254 258 263 274 279 264 239 277 180 174 160 153 144 138 141 147 147 151 155 158 162 166 166 167 169 172 172 176 181 184 187 180 179 186 186 187 176 165 177 182 187 187 191 197 216 210 203 221
228 242 256 271 275 281 285 283 310 241 201 191 164 139 138 144 142 143 147 148 146 151 153 155 157 159 166 171 176 175 176 184 182 186 191 185 180 173 177 186 187 190 190 193 201 220 209 209 222
243 238 245 255 268 276 283 271 184 203 184 176 140 127 128 126 127 130 135 136 143 146 151 154 159 164 167 169 172 174 179 182 182 188 188 183 183 183 187 191 192 198 199 196 200 219 221 216 220
Height
1485 1484 1485 1488 1488 1486 1480 1463 1456 1458 1460 1463 1464 1465 1468 1474 1482 1493 1492 1493 1495 1497 1501 1505 1508 1511 1514 1517 1519 1521 1524 1525 1527 1529 1530 1532 1533 1534 1536 1537 1538 1539 1540 1541 1543 1544 1545 1546 1547
1484 1485 1488 1487 1488 1492 1477 1459 1459 1460 1463 1465 1466 1468 1471 1477 1482 1487 1491 1494 1495 1498 1502 1506 1509 1512 1515 1518 1520 1523 1525 1527 1529 1530 1532 1534 1535 1537 1538 1539 1540 1541 1542 1543 1544 1546 1547 1548 1549
1484 1485 1486 1481 1483 1481 1472 1458 1458 1460 1463 1465 1467 1470 1474 1481 1484 1488 1492 1495 1497 1500 1503 1506 1510 1513 1516 1518 1521 1524 1526 1528 1530 1532 1534 1535 1537 1538 1540 1541 1542 1543 1544 1545 1546 1548 1549 1550 1551
1486 1485 1482 1478 1475 1463 1457 1456 1457 1459 1463 1465 1468 1473 1478 1483 1486 1489 1492 1496 1498 1500 1503 1507 1510 1514 1516 1519 1522 1525 1527 1529 1531 1533 1535 1537 1539 1540 1542 1543 1544 1545 1546 1547 1549 1550 1551 1552 1554
1487 1482 1480 1480 1469 1456 1451 1454 1457 1459 1462 1465 1468 1474 1481 1485 1487 1490 1493 1496 1499 1502 1504 1508 1511 1514 1517 1520 1523 1526 1528 1530 1533 1535 1537 1538 1540 1542 1543 1545 1546 1547 1548 1550 1551 1552 1553 1554 1556
1485 1476 1481 1479 1465 1453 1452 1454 1457 1460 1462 1466 1469 1474 1482 1486 1488 1491 1495 1498 1500 1503 1505 1508 1512 1515 1518 1521 1524 1527 1529 1532 1534 1536 1538 1540 1541 1543 1545 1546 1548 1549 1550 1551 1553 1554 1555 1556 1557
1483 1476 1475 1468 1462 1455 1453 1454 1457 1459 1462 1465 1468 1473 1482 1487 1488 1491 1495 1499 1502 1504 1505 1509 1512 1516 1519 1522 1525 1527 1530 1533 1535 1537 1539 1541 1543 1545 1546 1548 1549 1550 1552 1553 1554 1556 1557 1558 1559
1479 1475 1472 1466 1461 1456 1452 1454 1456 1459 1462 1465 1468 1473 1482 1485 1488 1491 1496 1499 1503 1505 1506 1509 1513 1516 1519 1522 1525 1528 1531 1533 1536 1538 1540 1542 1544 1546 1547 1549 1551 1552 1553 1555 1556 1557 1558 1560 1561
1478 1477 1474 1464 1457 1453 1451 1453 1455 1458 1462 1465 1470 1473 1477 1482 1487 1491 1495 1499 1503 1505 1507 1510 1513 1516 1519 1522 1525 1528 1531 1534 1536 1539 1541 1543 1545 1547 1548 1550 1552 1553 1555 1556 1557 1559 1560 1561 1562
1473 1473 1467 1454 1449 1449 1451 1453 1455 1456 1461 1466 1472 1477 1479 1482 1486 1490 1493 1497 1501 1504 1507 1510 1513 1516 1520 1523 1525 1528 1531 1534 1537 1539 1542 1544 1547 1548 1550 1551 1553 1554 1556 1557 1559 1560 1561 1562 1564
1467 1465 1458 1452 1450 1450 1451 1452 1454 1456 1461 1466 1471 1476 1478 1481 1485 1488 1492 1495 1499 1503 1507 1510 1512 1515 1519 1523 1525 1529 1532 1534 1537 1540 1542 1545 1548 1549 1551 1552 1553 1555 1557 1558 1560 1561 1562 1564 1565
1463 1459 1456 1453 1451 1451 1452 1452 1453 1457 1460 1463 1467 1472 1476 1480 1483 1487 1490 1494 1497 1501 1505 1509 1510 1514 1518 1521 1525 1529 1532 1534 1537 1540 1543 1545 1548 1550 1551 1552 1554 1556 1557 1559 1560 1562 1563 1564 1565
1459 1456 1454 1452 1451 1451 1451 1451 1453 1457 1458 1461 1465 1470 1474 1478 1481 1485 1489 1493 1496 1500 1504 1507 1509 1512 1517 1520 1525 1529 1531 1534 1537 1539 1543 1545 1547 1549 1551 1553 1554 1556 1558 1559 1560 1562 1563 1564 1566
1455 1453 1452 1451 1449 1449 1449 1449 1452 1456 1459 1460 1464 1468 1473 1476 1480 1483 1487 1490 1493 1498 1502 1505 1507 1511 1515 1519 1524 1527 1531 1534 1536 1539 1542 1544 1547 1549 1550 1552 1554 1556 1557 1559 1560 1561 1563 1564 1565
1454 1453 1451 1448 1446 1446 1447 1450 1452 1456 1458 1460 1462 1466 1471 1474 1478 1481 1484 1488 1490 1495 1499 1502 1506 1509 1512 1518 1522 1526 1530 1532 1535 1538 1541 1544 1546 1548 1550 1552 1554 1555 1557 1558 1560 1561 1562 1564 1565
1452 1454 1456 1446 1443 1442 1448 1457 1451 1453 1456 1458 1460 1464 1469 1473 1476 1479 1482 1486 1489 1493 1497 1500 1504 1507 1511 1516 1520 1525 1529 1531 1534 1537 1540 1542 1545 1547 1549 1551 1553 1555 1556 1558 1559 1561 1562 1564 1565
1454 1457 1454 1447 1440 1439 1443 1451 1449 1450 1452 1454 1457 1462 1466 1471 1475 1478 1481 1484 1488 1490 1494 1497 1501 1504 1509 1514 1519 1523 1527 1530 1533 1536 1539 1541 1544 1546 1549 1551 1552 1554 1556 1557 1559 1561 1562 1563 1564
1457 1453 1453 1449 1439 1438 1442 1445 1445 1446 1448 1450 1454 1459 1464 1468 1472 1476 1479 1482 1485 1488 1491 1495 1498 1502 1507 1512 1517 1522 1525 1528 1532 1535 1537 1540 1543 1545 1548 1549 1551 1553 1555 1557 1558 1559 1561 1562 1564
1445 1447 1450 1442 1433 1437 1441 1442 1441 1443 1446 1448 1452 1456 1461 1466 1471 1474 1478 1481 1484 1486 1489 1492 1495 1498 1504 1509 1514 1518 1523 1526 1530 1534 1536 1539 1542 1544 1547 1548 1550 1552 1554 1556 1557 1559 1560 1562 1563
1445 1448 1445 1438 1433 1436 1440 1441 1438 1439 1443 1447 1450 1454 1459 1464 1469 1472 1476 1479 1482 1484 1487 1490 1493 1495 1500 1506 1511 1516 1521 1525 1529 1532 1535 1537 1540 1543 1546 1547 1549 1551 1553 1555 1556 1558 1560 1561 1563
1446 1448 1446 1444 1437 1435 1441 1445 1442 1441 1443 1447 1450 1452 1457 1461 1466 1470 1474 1477 1480 1482 1484 1487 1490 1494 1497 1503 1509 1515 1519 1524 1528 1530 1533 1536 1539 1541 1544 1546 1548 1550 1552 1553 1555 1557 1559 1560 1562
1449 1440 1440 1442 1446 1450 1446 1460 1448 1443 1445 1446 1448 1451 1454 1459 1463 1467 1471 1474 1477 1480 1483 1485 1489 1492 1496 1502 1507 1511 1515 1519 1524 1528 1531 1534 1537 1540 1543 1545 1547 1549 1551 1552 1554 1556 1558 1559 1561
1441 1435 1437 1440 1446 1452 1449 1458 1455 1446 1451 1448 1446 1449 1453 1457 1461 1465 1469 1472 1475 1478 1481 1483 1487 1490 1494 1499 1504 1509 1513 1518 1522 1526 1530 1533 1536 1538 1541 1543 1545 1547 1549 1551 1552 1554 1556 1558 1559
1435 1437 1439 1441 1449 1466 1461 1464 1462 1447 1446 1444 1443 1447 1452 1456 1460 1464 1468 1470 1474 1477 1479 1482 1485 1488 1492 1497 1502 1507 1511 1516 1520 1524 1527 1531 1534 1537 1539 1541 1544 1546 1548 1549 1551 1553 1554 1556 1557
1435 1448 1462 1467 1470 1474 1460 1462 1454 1436 1433 1436 1440 1445 1450 1454 1459 1462 1466 1469 1472 1475 1478 1480 1483 1486 1490 1495 1500 1505 1509 1514 1518 1522 1525 1528 1531 1534 1537 1540 1542 1544 1546 1548 1549 1551 1553 1554 1556
1435 1442 1463 1475 1475 1472 1464 1467 1446 1430 1431 1435 1439 1443 1448 1453 1457 1461 1465 1468 1471 1474 1476 1479 1481 1484 1488 1493 1498 1503 1507 1512 1516 1520 1523 1526 1530 1532 1535 1538 1540 1542 1544 1546 1548 1549 1551 1552 1553
1435 1437 1434 1448 1453 1465 1462 1456 1440 1430 1431 1434 1438 1443 1447 1451 1456 1460 1464 1467 1470 1473 1475 1477 1480 1482 1487 1491 1496 1501 1505 1510 1514 1517 1521 1525 1528 1531 1533 1536 1538 1540 1542 1544 1546 1547 1549 1550 1551
1427 1429 1435 1447 1464 1470 1459 1456 1453 1439 1438 1437 1439 1442 1446 1451 1455 1460 1463 1466 1469 1472 1474 1477 1479 1481 1485 1490 1494 1499 1503 1508 1512 1515 1519 1523 1526 1529 1531 1533 1536 1538 1540 1541 1543 1545 1546 1548 1549
1429 1433 1435 1439 1444 1461 1467 1462 1440 1439 1437 1438 1439 1442 1446 1450 1454 1459 1463 1466 1469 1471 1473 1476 1478 1482 1486 1489 1493 1498 1501 1505 1509 1513 1517 1520 1523 1526 1529 1531 1533 1535 1537 1539 1541 1542 1544 1545 1547
1422 1428 1434 1451 1452 1448 1455 1458 1433 1435 1435 1438 1438 1443 1447 1451 1455 1459 1463 1466 1469 1471 1474 1476 1479 1482 1485 1488 1492 1496 1500 1503 1507 1510 1514 1518 1521 1524 1526 1528 1531 1533 1535 1537 1538 1540 1541 1542 1544